LiveATC.Net - Listen to live air traffic control over the Internet! Contact LiveATC.net for advertising information


ICAO: SBMT  IATA:   Airport: Marte Airport
City: Sao Paulo
Country: Brazil   Continent: South America
SBMT METAR Weather: SBMT 121300Z 07010KT CAVOK 25/16 Q1018
SBMT Flight Activity (FlightAware)
SBMT Ground/Tower
Feed Status: DOWN
Last heard on: 2015-12-12 01:19:03 (62 days 12 hours 50 minutes ago)
SBMT Ground/Tower Audio Archives
FacilityFrequency
Marte Ground121.600
Marte Tower133.350


NOTICE

Unauthorized use prohibited. See LiveATC.net Terms of Service


Find LiveATC Audio Streams


Airport/ARTCC Code

Frequency
(e.g., 124.400, 128.75)
Site-wide search

Browse LiveATC Feeds
LiveATC Coverage Map
Top 50 LiveATC Feeds
Bad Weather Areas

LiveATC FAQ
Offer a LiveATC Feed
Contact LiveATC.net
Press Inquiries

LiveATC on iPhone
LiveATC on Android

Windows Phone
Windows 8/10

LiveATC Mobile
(Mobile browser)

ATC Audio Archives
Interesting Recordings

LiveATC Forums


Home Page
About LiveATC.net
Make a Donation
LiveATC Store

Terms of Use
Privacy Policy

Canadian Air Freqs

AIRMETs/SIGMETs

FAA Airport Status
Nat'l Airspace Status
Arrival Demand Charts


Server Software By:
Icecast.org
Liquidsoap

Please make a donation to help us keep growing!